Walsenburg, Colorado
Current Conditions -  °F | °C
As of 1:01 AM on Friday 24 Oct 2014 (Local Time) from KVTP Reporting Station
Clear Clear  
Wind Chill: 34°   Ceiling: Unl
Heat Index: 43°   Visibility: 10mi
Dew Point: 28°   Wind: 20mph
Humidity: 57%   Direction: 190°S
Pressure: 30.44"   Gusts: 30mph
Location:  37.62°N, 104.78°W
Report Text: KVTP 240701Z AUTO 19017G26KT 10SM CLR 06/M02 A3044 RMK AO2
Loading
Personal Weather Stations






























Interactive Weather Map New forecast layout! Learn more

10-Day Weather Forecast

Advertisements
Track Severe Weather on mobile